GW0245 Weather Reports


Display with metric or nautical units.
time (UTC)temp
F
wind
direction
speed
MPH
gust
MPH
rain 1hr
in
rain 24hr
in
rain mn
in
humidity
%
barometer
mb
20260906134614 71 0 0.0 0.0 0.00 0.00 0.00 66 1018.1
20260906133103 70 0 0.0 3.0 0.00 0.00 0.00 63 1017.8
20260906131601 70 0 0.0 3.0 0.00 0.00 0.00 62 1017.6
20260906130116 70 0 0.0 2.0 0.00 0.00 0.00 62 1017.5
20260906124602 71 0 0.0 1.0 0.00 0.00 0.00 62 1017.5
20260906123140 72 263 0.0 1.0 0.00 0.00 0.00 60 1017.5
20260906121605 72 0 0.0 0.0 0.00 0.00 0.00 58 1017.4
20260906120112 72 0 0.0 2.0 0.00 0.00 0.00 59 1017.4
20260906114606 72 0 0.0 2.0 0.00 0.00 0.00 59 1017.4
20260906113101 72 263 0.0 1.0 0.00 0.00 0.00 61 1017.3
20260906111606 72 0 0.0 1.0 0.00 0.00 0.00 60 1017.3
20260906110106 73 0 0.0 1.0 0.00 0.00 0.00 58 1017.2
20260906104602 72 261 0.0 3.0 0.00 0.00 0.00 58 1017.3
20260906103106 73 0 0.0 0.0 0.00 0.00 0.00 58 1017.2
20260906101605 73 0 0.0 1.0 0.00 0.00 0.00 57 1017.3
20260906100110 74 0 0.0 1.0 0.00 0.00 0.00 57 1017.3
20260906094607 74 0 0.0 2.0 0.00 0.00 0.00 56 1017.3
20260906093108 75 0 0.0 2.0 0.00 0.00 0.00 56 1017.4
20260906091607 75 0 0.0 1.0 0.00 0.00 0.00 55 1017.4
20260906090101 75 214 1.0 3.0 0.00 0.00 0.00 55 1017.5
20260906084606 75 0 1.0 3.0 0.00 0.00 0.00 54 1017.5
20260906083106 75 0 0.0 2.0 0.00 0.00 0.00 54 1017.7
20260906081604 75 270 1.0 3.0 0.00 0.00 0.00 54 1017.9
20260906080134 75 0 0.0 2.0 0.00 0.00 0.00 54 1017.8
20260906074602 75 0 0.0 3.0 0.00 0.00 0.00 54 1017.9
20260906073105 75 0 0.0 1.0 0.00 0.00 0.00 54 1017.9
20260906071605 76 0 0.0 2.0 0.00 0.00 0.00 53 1017.9
20260906070105 76 0 0.0 2.0 0.00 0.00 0.00 52 1018.0
20260906064559 76 271 0.0 3.0 0.00 0.00 0.00 52 1018.0
20260906063106 76 283 0.0 2.0 0.00 0.00 0.00 52 1018.0
20260906061607 76 0 0.0 2.0 0.00 0.00 0.00 52 1018.0
20260906060105 77 0 0.0 3.0 0.00 0.00 0.00 50 1018.1
20260906054602 77 0 1.0 4.0 0.00 0.00 0.00 50 1018.2
20260906053110 76 252 2.0 5.0 0.00 0.00 0.00 51 1018.2
20260906051605 75 241 1.0 4.0 0.00 0.00 0.00 53 1018.2
20260906050104 75 0 0.0 2.0 0.00 0.00 0.00 53 1018.3
20260906044606 75 0 0.0 1.0 0.00 0.00 0.00 53 1018.3
20260906043107 76 0 0.0 2.0 0.00 0.00 0.00 52 1018.2
20260906041606 76 0 0.0 1.0 0.00 0.00 0.00 51 1018.0
20260906040118 77 0 0.0 2.0 0.00 0.00 0.00 50 1018.0
20260906034607 78 0 0.0 2.0 0.00 0.00 0.00 48 1018.0
20260906033116 78 0 1.0 3.0 0.00 0.00 0.00 47 1017.9
20260906031600 79 234 0.0 2.0 0.00 0.00 0.00 47 1017.7
20260906030109 80 0 0.0 0.0 0.00 0.00 0.00 44 1017.6
20260906024608 82 0 0.0 5.0 0.00 0.00 0.00 42 1017.4
20260906023104 82 194 2.0 8.0 0.00 0.00 0.00 41 1017.3
20260906021606 82 277 2.0 7.0 0.00 0.00 0.00 42 1017.2
20260906020110 83 261 1.0 6.0 0.00 0.00 0.00 41 1017.2
20260906014606 83 255 2.0 9.0 0.00 0.00 0.00 40 1017.4
20260906013111 83 269 4.0 11.0 0.00 0.00 0.00 40 1017.4
20260906011609 83 262 8.0 12.0 0.00 0.00 0.00 41 1017.5
20260906010107 84 262 5.0 11.0 0.00 0.00 0.00 40 1017.5
20260906004612 84 293 7.0 12.0 0.00 0.00 0.00 40 1017.3
20260906003106 84 222 4.0 13.0 0.00 0.00 0.00 39 1017.2
20260906001609 85 0 3.0 10.0 0.00 0.00 0.00 39 1017.3
20260906000107 85 0 0.0 4.0 0.00 0.00 0.00 40 1017.3
20260905234604 85 196 2.0 11.0 0.00 0.00 0.00 39 1017.3
20260905233111 84 235 2.0 11.0 0.00 0.00 0.00 41 1017.4
20260905231609 83 208 7.0 13.0 0.00 0.00 0.00 41 1017.4
20260905230105 84 235 6.0 12.0 0.00 0.00 0.00 44 1017.4
20260905224559 85 176 3.0 10.0 0.00 0.00 0.00 39 1017.3
20260905223105 86 216 6.0 17.0 0.00 0.00 0.00 38 1017.3
20260905221604 87 173 8.0 14.0 0.00 0.00 0.00 36 1017.3
20260905220105 89 164 4.0 9.0 0.00 0.00 0.00 33 1017.2
20260905214603 89 186 5.0 13.0 0.00 0.00 0.00 32 1017.4
20260905213108 90 206 4.0 10.0 0.00 0.00 0.00 30 1017.5
20260905211602 91 201 3.0 12.0 0.00 0.00 0.00 30 1017.5
20260905210120 92 217 2.0 8.0 0.00 0.00 0.00 30 1017.6
20260905204606 92 224 6.0 13.0 0.00 0.00 0.00 30 1017.8
20260905203101 90 238 5.0 11.0 0.00 0.00 0.00 31 1017.8
20260905201607 92 160 5.0 12.0 0.00 0.00 0.00 29 1017.9
20260905200117 92 92 5.0 9.0 0.00 0.00 0.00 29 1018.2
20260905194612 91 289 1.0 9.0 0.00 0.00 0.00 31 1018.4
20260905193103 90 61 1.0 10.0 0.00 0.00 0.00 30 1018.5
20260905191609 90 95 5.0 10.0 0.00 0.00 0.00 31 1018.7
20260905190112 89 53 1.0 11.0 0.00 0.00 0.00 33 1019.1
20260905184624 88 0 1.0 7.0 0.00 0.00 0.00 35 1019.2
20260905183108 87 69 2.0 6.0 0.00 0.00 0.00 36 1019.5
20260905181607 86 58 1.0 5.0 0.00 0.00 0.00 37 1019.5
20260905180104 85 47 2.0 6.0 0.00 0.00 0.00 38 1019.7
20260905174600 84 0 0.0 4.0 0.00 0.00 0.00 39 1019.8
20260905173116 83 63 1.0 5.0 0.00 0.00 0.00 41 1020.2
20260905171625 83 154 1.0 6.0 0.00 0.00 0.00 40 1020.2
20260905164606 81 77 1.0 4.0 0.00 0.00 0.00 42 1020.3
20260905163114 80 61 1.0 3.0 0.00 0.00 0.00 43 1020.2
20260905161604 79 76 1.0 5.0 0.00 0.00 0.00 41 1020.1
20260905154618 78 51 0.0 2.0 0.00 0.00 0.00 42 1020.1
20260905153114 76 0 0.0 3.0 0.00 0.00 0.00 43 1020.1
20260905151615 76 76 1.0 4.0 0.00 0.00 0.00 44 1020.1
20260905150105 76 42 0.0 4.0 0.00 0.00 0.00 42 1020.0
20260905144603 76 0 0.0 0.0 0.00 0.00 0.00 42 1019.9
20260905143105 75 0 0.0 0.0 0.00 0.00 0.00 44 1019.8
20260905141603 73 0 0.0 0.0 0.00 0.00 0.00 49 1019.5
20260905140105 70 0 0.0 0.0 0.00 0.00 0.00 51 1019.5